Location: Catenanuova
(37.5690°N, 14.6870°E)
Time: 02:11:48
(UTC+02:00)

Tiangong - Pass Details

Date: 01 June 2024
Orbit: 378 x 384 km, 41.5° (Epoch: 21 June)

Event Time Altitude Azimuth Distance (km) Brightness Sun altitude
Rises 05:07:38 0° 286° (WNW) 2,235 1.4 -6.5°
Reaches altitude 10° 05:09:46 10° 279° (W) 1,381 0.2 -6.2°
Maximum altitude 05:12:43 40° 208° (SSW) 568 -1.7 -5.7°
Drops below altitude 10° 05:15:39 10° 136° (SE) 1,378 0.8 -5.2°
Sets 05:17:46 0° 129° (SE) 2,227 2.0 -4.9°
